{"data":{"norad_id":68447,"intl_designator":"2026-067AH","name":"IRIDE-MS1-EAGLET 2-14","alt_names":[],"object_type":"PAYLOAD","status":"ACTIVE","operator":null,"country":"IT","launch_date":"2026-03-30","launch_site_code":"AFWTR","launch_vehicle":null,"mission":null,"orbit_class":"UNKNOWN","rcs_meters":null,"size_class":null,"mass_kg":null,"dimensions":null,"purposes":[],"wikipedia_slug":null,"has_3d_model":false,"image_url":null,"decayed_at":null,"tle_current":{"epoch":"2026-09-20T03:30:55.744992Z","epoch_age_seconds":99470,"freshness":"FRESH","line1":"1 68447U 26067AH  26263.14647853  .00005200  00000+0  24400-3 0  9996","line2":"2 68447  97.4616 220.4595 0003281  67.5364 292.6218 15.20083717 26367","mean_motion":15.20083717,"eccentricity":0.0003281,"inclination_deg":97.4616,"raan_deg":220.4595,"arg_perigee_deg":67.5364,"mean_anomaly_deg":292.6218,"bstar":0.000244,"rev_number":2636,"period_min":94.731624574069,"perigee_km":503.32930944707,"apogee_km":507.84640969993,"semimajor_km":6883.7248595735,"source":"CELESTRAK","updated_at":"2026-09-20T09:00:24.207403Z"}}}